Lubbock, TX

8:55 AM CST on December 15, 2017 (GMT -0600)
Lubbock International

Weather History for KLBB - September, 2013

Change the Weather History Date:

Wednesday, September 4, 2013

  Actual Average Record
Temperature  
Mean Temperature 80 °F 76 °F  
Max Temperature 95 °F 88 °F 101 °F (2000)
Min Temperature 65 °F 63 °F 46 °F (1915)
Degree Days  
Heating Degree Days 0 0  
Month to date heating degree days 0 0  
Since 1 July heating degree days 0 0  
Cooling Degree Days 15 11  
Month to date cooling degree days 64 44  
Year to date cooling degree days 1792 1570  
Growing Degree Days 30 (Base 50)    
Moisture  
Dew Point 51 °F    
Average Humidity 43    
Maximum Humidity 67    
Minimum Humidity 19    
Precipitation  
Precipitation 0.00 in 0.08 in 2.73 in (1986)
Month to date precipitation T 0.32  
Year to date precipitation 9.78 13.39  
Snow  
Snow 0.00 in 0.00 in 0.00 in (2002)
Month to date snowfall 0.0 0.0  
Since 1 July snowfall 0.0 0.0  
Since 1 September snowfall 0.0 0.0  
Snow Depth 0.00 in    
Sea Level Pressure  
Sea Level Pressure 30.00 in    
Wind  
Wind Speed 5 mph (ESE)    
Max Wind Speed 15 mph    
Max Gust Speed 21 mph    
Visibility 10 miles    
Events      
T = Trace of Precipitation, MM = Missing Value Source: NWS Daily Summary

Daily Weather History Graph

Daily Weather History Graph

Search for Another Location

Airport or City:

Trip Planner

Search our weather history database for the weather conditions in past years. The results will help you decide how hot, cold, wet, or windy it might be!

Date:

Astronomy

Sep. 04, 2013 Rise Set
Actual Time 7:23 AM CDT 8:08 PM CDT
Civil Twilight 6:58 AM CDT 8:33 PM CDT
Nautical Twilight 6:28 AM CDT 9:03 PM CDT
Astronomical Twilight 5:57 AM CDT 9:33 PM CDT
Moon 6:37 AM CDT (9/4) 7:31 PM CDT (9/4)
Length of Visible Light 13h 35m
Length of Day
12h 44m
Waning Crescent, 1% of the Moon is Illuminated
Sep 4
Waning Crescent
Sep 5
New
Sep 12
First Quarter
Sep 19
Full
Sep 26
Last Quarter

Hourly Weather History & Observations

Time (CDT) Temp. Heat Index Dew Point Humidity Pressure Visibility Wind Dir Wind Speed Gust Speed Precip Events Conditions
12:53 AM 75.0 °F - 53.1 °F 46% 29.96 in 10.0 mi SE 5.8 mph - N/A   Clear
1:53 AM 73.0 °F - 53.1 °F 49% 29.98 in 10.0 mi SE 5.8 mph - N/A   Clear
2:53 AM 72.0 °F - 54.0 °F 53% 29.98 in 10.0 mi SE 5.8 mph - N/A   Clear
3:53 AM 71.1 °F - 53.1 °F 53% 29.99 in 10.0 mi SE 4.6 mph - N/A   Scattered Clouds
4:53 AM 70.0 °F - 54.0 °F 57% 29.99 in 10.0 mi SE 3.5 mph - N/A   Partly Cloudy
5:53 AM 68.0 °F - 53.1 °F 59% 30.00 in 10.0 mi Calm Calm - N/A   Clear
6:53 AM 64.9 °F - 54.0 °F 68% 30.01 in 10.0 mi NE 3.5 mph - N/A   Partly Cloudy
7:53 AM 64.9 °F - 54.0 °F 68% 30.03 in 10.0 mi NE 5.8 mph - N/A   Scattered Clouds
8:53 AM 72.5 °F - 52.2 °F 49% 30.03 in 10.0 mi Calm Calm - N/A   Clear
9:53 AM 80.1 °F - 52.0 °F 38% 30.04 in 10.0 mi Calm Calm - N/A   Clear
10:53 AM 84.9 °F 83.6 °F 55.0 °F 36% 30.05 in 10.0 mi Variable 4.6 mph - N/A   Clear
11:53 AM 87.1 °F 85.9 °F 57.0 °F 36% 30.05 in 10.0 mi Calm Calm - N/A   Partly Cloudy
12:53 PM 90.0 °F 87.9 °F 55.0 °F 30% 30.03 in 10.0 mi ESE 4.6 mph - N/A   Partly Cloudy
1:53 PM 93.0 °F 90.6 °F 53.1 °F 26% 30.01 in 10.0 mi North 3.5 mph - N/A   Partly Cloudy
2:53 PM 93.9 °F - 50.0 °F 22% 30.00 in 10.0 mi NE 10.4 mph 17.3 mph N/A   Partly Cloudy
3:53 PM 93.9 °F - 50.0 °F 22% 29.98 in 10.0 mi ENE 9.2 mph - N/A   Partly Cloudy
4:53 PM 93.9 °F - 48.0 °F 21% 29.96 in 10.0 mi SE 6.9 mph - N/A   Partly Cloudy
5:53 PM 93.9 °F - 44.1 °F 18% 29.96 in 10.0 mi ENE 8.1 mph - N/A   Partly Cloudy
6:53 PM 93.0 °F - 44.1 °F 18% 29.96 in 10.0 mi SE 5.8 mph - N/A   Partly Cloudy
7:53 PM 88.0 °F - 46.9 °F 24% 29.98 in 10.0 mi East 9.2 mph - N/A   Partly Cloudy
8:53 PM 81.0 °F - 46.9 °F 30% 29.99 in 10.0 mi ESE 6.9 mph - N/A   Clear
9:53 PM 77.0 °F - 46.9 °F 34% 30.01 in 10.0 mi ESE 6.9 mph - N/A   Clear
10:53 PM 73.9 °F - 46.9 °F 38% 30.01 in 10.0 mi ESE 4.6 mph - N/A   Clear
11:53 PM 72.0 °F - 46.9 °F 41% 30.02 in 10.0 mi ESE 6.9 mph - N/A   Clear